Regional Weather Roundup
Issued by NWS

Home | Current Version | Previous Version | Graphics & Text | Print | Product List | Glossary On
Versions: 1 2 3 4 5 6 7 8 9 10 11 12 13 14 15 16 17 18 19 20 21 22 23 24 25 26 27 28 29 30 31 32 33 34 35 36 37 38 39 40 41 42 43 44 45 46 47 48 49 50
000
ASUS43 KBIS 180210
RWRND

NORTH DAKOTA REGIONAL WEATHER ROUNDUP
NATIONAL WEATHER SERVICE BISMARCK ND
800 PM CST SAT FEB 17 2018

NOTE: "FAIR" INDICATES FEW OR NO CLOUDS BELOW 12,000 FEET WITH NO
SIGNIFICANT WEATHER AND/OR OBSTRUCTIONS TO VISIBILITY.


NDZ001>003-009>011-017-180300-
NORTHWEST NORTH DAKOTA

CITY           SKY/WX    TMP DP  RH WIND       PRES   REMARKS
WILLISTON      CLOUDY    12   5  73 CALM      29.87F
MINOT          PTCLDY    12   3  67 W9        29.90F WCI   0
MINOT AFB      PTCLDY     7   2  79 CALM      29.90F
$$

NDZ018>021-031>035-040>046-180300-
SOUTHWEST NORTH DAKOTA

CITY           SKY/WX    TMP DP  RH WIND       PRES   REMARKS
BISMARCK       CLOUDY    17   8  67 SW5       29.94F WCI  10
DICKINSON      CLOUDY    14   7  73 SE5       29.80F WCI   6
GARRISON         N/A     12   5  73 N3        29.89S
HETTINGER ARPT CLOUDY    15   8  73 SE5       29.83F WCI   8
$$

NDZ004>008-012>016-024-026-027-054-180300-
NORTHEAST NORTH DAKOTA

CITY           SKY/WX    TMP DP  RH WIND       PRES   REMARKS
GRAND FORKS    FLURRIES  15  10  80 N6        29.97S WCI   6
GRND FRKS AFB  FAIR      12   9  85 CALM      29.97S
DEVILS LAKE    FAIR       8   3  80 NW6       29.94R WCI  -2
$$

NDZ022-023-025-028>030-036>039-047>053-180300-
SOUTHEAST NORTH DAKOTA

CITY           SKY/WX    TMP DP  RH WIND       PRES   REMARKS
FARGO          FAIR      14   8  77 SW6       29.98F WCI   5
JAMESTOWN      CLEAR     14   7  73 NW8       29.94F WCI   3
$$





USA.gov is the U.S. government's official web portal to all federal, state and local government web resources and services.